{"data":{"norad_id":61716,"intl_designator":"2024-196K","name":"STARLINK-32465","alt_names":[],"object_type":"PAYLOAD","status":"ACTIVE","operator":null,"country":"US","launch_date":"2024-10-30","launch_site_code":"AFETR","launch_vehicle":null,"mission":null,"orbit_class":"UNKNOWN","rcs_meters":null,"size_class":null,"mass_kg":null,"dimensions":null,"purposes":["comms"],"wikipedia_slug":null,"has_3d_model":false,"image_url":null,"decayed_at":null,"tle_current":{"epoch":"2026-05-25T04:18:46.689120Z","epoch_age_seconds":73729,"freshness":"FRESH","line1":"1 61716U 24196K   26145.17970705  .00000610  00000+0  32731-4 0  9993","line2":"2 61716  53.1609 106.3337 0001343 102.4187 257.6964 15.30201651 88867","mean_motion":15.30201651,"eccentricity":0.0001343,"inclination_deg":53.1609,"raan_deg":106.3337,"arg_perigee_deg":102.4187,"mean_anomaly_deg":257.6964,"bstar":3.2731e-5,"rev_number":8886,"period_min":94.105244172162,"perigee_km":474.28973531447,"apogee_km":476.13054435623,"semimajor_km":6853.3471398354,"source":"CELESTRAK","updated_at":"2026-05-25T13:38:19.445650Z"}}}